Winfield, KS

6:38 PM CDT on April 24, 2018 (GMT -0500)
Strother

Weather History for KWLD - September, 2012

Change the Weather History Date:

Monday, September 3, 2012

  Actual Average Record
Temperature  
Mean Temperature 90 °F -  
Max Temperature 107 °F 88 °F 107 °F (2012)
Min Temperature 75 °F 64 °F 53 °F (2010)
Cooling Degree Days 26    
Growing Degree Days 40 (Base 50)    
Moisture  
Dew Point 63 °F    
Average Humidity 45    
Maximum Humidity 71    
Minimum Humidity 19    
Precipitation  
Precipitation 0.00 in - - ()
Sea Level Pressure  
Sea Level Pressure 29.82 in    
Wind  
Wind Speed 6 mph (South)    
Max Wind Speed 15 mph    
Max Gust Speed 22 mph    
Visibility 10 miles    
Events      
Averages and records for this station are not official NWS values.
T = Trace of Precipitation, MM = Missing Value Source: NWS Daily Summary

Daily Weather History Graph

Daily Weather History Graph

Search for Another Location

Airport or City:

Astronomy

Sep. 03, 2012 Rise Set
Actual Time 7:00 AM CDT 7:53 PM CDT
Civil Twilight 6:34 AM CDT 8:19 PM CDT
Nautical Twilight 6:02 AM CDT 8:50 PM CDT
Astronomical Twilight 5:30 AM CDT 9:23 PM CDT
Moon 9:19 PM CDT (9/3) 10:04 AM CDT (9/3)
Length of Visible Light 13h 45m
Length of Day
12h 52m
Waning Gibbous, 90% of the Moon is Illuminated
Sep 3
Waning Gibbous
Sep 8
Last Quarter
Sep 15
New
Sep 22
First Quarter
Sep 29
Full

Hourly Weather History & Observations

Time (CDT) Temp. Heat Index Dew Point Humidity Pressure Visibility Wind Dir Wind Speed Gust Speed Precip Events Conditions
12:54 AM 82.0 °F 84.5 °F 66.9 °F 60% 29.84 in 10.0 mi SE 4.6 mph - N/A   Clear
1:54 AM 81.0 °F 83.8 °F 68.0 °F 65% 29.84 in 10.0 mi ESE 3.5 mph - N/A   Clear
2:54 AM 80.1 °F 82.1 °F 66.0 °F 62% 29.84 in 10.0 mi ESE 4.6 mph - N/A   Clear
3:54 AM 79.0 °F - 64.9 °F 62% 29.84 in 10.0 mi ESE 3.5 mph - N/A   Clear
4:54 AM 78.1 °F - 64.0 °F 62% 29.84 in 10.0 mi ESE 4.6 mph - N/A   Clear
5:54 AM 75.9 °F - 64.0 °F 67% 29.85 in 10.0 mi Calm Calm - N/A   Clear
6:54 AM 75.9 °F - 64.0 °F 67% 29.86 in 10.0 mi ESE 4.6 mph - N/A   Clear
7:54 AM 75.9 °F - 66.0 °F 71% 29.87 in 10.0 mi Calm Calm - N/A   Clear
8:54 AM 82.0 °F 84.9 °F 68.0 °F 62% 29.87 in 10.0 mi SSE 8.1 mph - N/A   Clear
9:54 AM 87.1 °F 90.6 °F 68.0 °F 53% 29.87 in 10.0 mi SSW 5.8 mph - N/A   Clear
10:54 AM 93.9 °F 97.5 °F 66.9 °F 41% 29.87 in 10.0 mi SW 8.1 mph - N/A   Clear
11:54 AM 98.1 °F 102.4 °F 66.9 °F 36% 29.86 in 10.0 mi West 8.1 mph - N/A   Clear
12:54 PM 100.9 °F 106.0 °F 66.9 °F 33% 29.85 in 10.0 mi SW 4.6 mph - N/A   Clear
1:54 PM 105.1 °F 105.0 °F 57.9 °F 21% 29.83 in 10.0 mi WSW 9.2 mph 16.1 mph N/A   Clear
2:54 PM 106.0 °F 105.8 °F 57.0 °F 20% 29.81 in 10.0 mi SW 15.0 mph 19.6 mph N/A   Scattered Clouds
3:54 PM 102.9 °F 103.0 °F 57.9 °F 23% 29.79 in 10.0 mi SSW 10.4 mph 21.9 mph N/A   Partly Cloudy
4:54 PM 106.0 °F 105.1 °F 55.9 °F 19% 29.78 in 10.0 mi SSW 13.8 mph 17.3 mph N/A   Partly Cloudy
5:54 PM 102.9 °F 102.4 °F 57.0 °F 22% 29.77 in 10.0 mi SSW 10.4 mph - N/A   Partly Cloudy
6:54 PM 99.0 °F 99.5 °F 60.1 °F 28% 29.77 in 10.0 mi SSE 6.9 mph - N/A   Clear
7:54 PM 93.0 °F 93.8 °F 62.1 °F 36% 29.77 in 10.0 mi SSE 8.1 mph - N/A   Clear
8:54 PM 89.1 °F 89.3 °F 62.1 °F 40% 29.78 in 10.0 mi SSE 9.2 mph - N/A   Clear
9:54 PM 91.0 °F 90.9 °F 61.0 °F 36% 29.79 in 10.0 mi South 10.4 mph - N/A   Clear
10:54 PM 90.0 °F 90.3 °F 62.1 °F 39% 29.80 in 10.0 mi South 11.5 mph - N/A   Clear
11:54 PM 87.1 °F 87.5 °F 62.1 °F 43% 29.81 in 10.0 mi South 9.2 mph - N/A   Clear